Regional Weather Roundup
Issued by NWS

Home | Current Version | Previous Version | Graphics & Text | Print | Product List | Glossary Off
Versions: 1 2 3 4 5 6 7 8 9 10 11 12 13 14 15 16 17 18 19 20 21 22 23 24 25 26 27 28 29 30 31 32 33 34 35 36 37 38 39 40 41 42 43 44 45 46 47 48 49 50

022
ASUS43 KMKX 281521
RWRWI

WISCONSIN REGIONAL WEATHER ROUNDUP
NATIONAL WEATHER SERVICE MILWAUKEE/SULLIVAN WI
1000 AM CDT WED JUN 28 2017

NOTE: "FAIR" INDICATES FEW OR NO CLOUDS BELOW 12,000 FEET WITH NO
SIGNIFICANT WEATHER AND/OR OBSTRUCTIONS TO VISIBILITY.

WIZ001-002-006>008-014>016-023>028-281600-
NORTHWEST WISCONSIN

CITY           SKY/WX    TMP DP  RH WIND       PRES   REMARKS
SUPERIOR ARPT  NOT AVBL
ASHLAND        CLOUDY    63  54  72 S5        29.71R
HAYWARD        LGT RAIN  63  53  70 SE10      29.70S
SIREN          LGT RAIN  59  57  93 SE8       29.63F
CUMBERLAND     RAIN      59  55  88 SE5       29.68F
RICE LAKE      RAIN      59  56  91 SE7       29.70S
CHETEK         LGT RAIN  59  57  93 SE3       29.69F
LADYSMITH      CLOUDY    63  54  73 SE9       29.75S
EAU CLAIRE     LGT RAIN  63  61  93 S8        29.69S
MENOMONIE      RAIN      65  64  95 S12       29.68S
NEW RICHMOND   LGT RAIN  64  64  97 S8        29.65F
OSCEOLA        DRIZZLE   65  65 100 S13       29.66S
$$

WIZ003>005-009-010-017-018-281600-
NORTH CENTRAL WISCONSIN

CITY           SKY/WX    TMP DP  RH WIND       PRES   REMARKS
MANITOWISH WTR CLOUDY    59  55  87 S12       29.76F
ARBOR VITAE    LGT RAIN  59  53  79 S12       29.77F
WOODRUFF       LGT RAIN  59  53  79 S12       29.77F
RHINELANDER    LGT RAIN  57  55  93 S6        29.80F
EAGLE RIVER    LGT RAIN  57  56  95 E3        29.80F
LAND O LAKES   CLOUDY    62  53  72 S12       29.80F
PHILLIPS       CLOUDY    60  55  83 S8        29.75R
TOMAHAWK       NOT AVBL
MEDFORD        CLOUDY    60  55  83 SE14      29.74F
MERRILL        CLOUDY    58  58  97 SE7       29.76F
$$

WIZ029-030-035-036-043>047-281600-
CENTRAL WISCONSIN

CITY           SKY/WX    TMP DP  RH WIND       PRES   REMARKS
WAUSAU         NOT AVBL
MOSINEE        CLOUDY    61  57  88 SE10      29.76F
MARSHFIELD     CLOUDY    61  56  83 S6        29.74F
STEVENS POINT  CLOUDY    59  58  94 SE7       29.76F
WAUPACA        CLOUDY    66  57  73 SE13      29.78F
WAUTOMA        LGT RAIN  61  57  87 SE12      29.78F
WISC RAPIDS    CLOUDY    62  58  86 S8        29.76F
CAMP DOUGLAS   CLOUDY    63  63 100 S13       29.74S
$$

WIZ011>013-019>022-031-037>040-048>050-281600-
NORTHEAST WISCONSIN

CITY           SKY/WX    TMP DP  RH WIND       PRES   REMARKS
ANTIGO         LGT RAIN  58  53  85 S10       29.82F
SHAWANO        CLOUDY    64  55  72 S6        29.84S
OCONTO         CLOUDY    65  54  66 S14G20    29.85S
STURGEON BAY     N/A     63  52  67 S18       29.86F
GREEN BAY      CLOUDY    65  57  75 S10       29.87S
MANITOWOC      CLOUDY    61  51  70 S16G25    29.90F
APPLETON       PTSUNNY   63  55  77 S14       29.82F
CLINTONVILLE   CLOUDY    63  55  77 S10       29.80F
OSHKOSH        CLOUDY    64  55  72 S15       29.83F
$$

WIZ032>034-041-042-053>061-281600-
SOUTHWEST WISCONSIN

CITY           SKY/WX    TMP DP  RH WIND       PRES   REMARKS
LA CROSSE      LGT RAIN  69  65  86 S15       29.72F
SPARTA         LGT RAIN  64  62  93 S13       29.74R
VIROQUA        CLOUDY    64  64 100 S12G17    29.78R
BOSCOBEL       LGT RAIN  66  63  90 S10G22    29.79F
PRAIRIE DU CHI LGT RAIN  66  65  96 SE8       29.77S
PLATTEVILLE    CLOUDY    64  64 100 S18G26    29.83F
$$

WIZ056-057-062-063-064-067-068-281600-
SOUTH CENTRAL WISCONSIN

CITY           SKY/WX    TMP DP  RH WIND       PRES   REMARKS
REEDSBURG      CLOUDY    62  62 100 S13       29.76F
BARABOO/DELLS  CLOUDY    61  59  93 S13G21    29.78F
LONE ROCK      LGT RAIN  65  61  87 S13G23    29.80F
MINERAL POINT  LGT RAIN  63  63 100 S17G24    29.82F
MADISON        LGT RAIN  62  60  93 S15       29.83F
MIDDLETON      CLOUDY    63  62  96 S17G26    29.84F
WATERTOWN      DRIZZLE   62  61  96 S15G22    29.90F
MONROE         LGT RAIN  61  59  94 S20G28    29.87F
JANESVILLE     RAIN      63  63 100 S12       29.93F
$$

WIZ051-052-058>065-066-070>072-281600-
SOUTHEAST WISCONSIN

CITY           SKY/WX    TMP DP  RH WIND       PRES   REMARKS
MILWAUKEE      LGT RAIN  67  55  65 S14       29.94F
WAUKESHA       RAIN      59  55  88 S9        29.96R
MILWAUKEE/TIMM CLOUDY    66  48  52 SW15G23   29.94F
RACINE         CLOUDY    67  53  61 S9        29.96F
KENOSHA        LGT RAIN  66  54  65 S14       29.96F
FOND DU LAC    CLOUDY    66  55  67 S17G25    29.86F
SHEBOYGAN      LGT RAIN  64  56  75 S10       29.90F
WEST BEND      LGT RAIN  59  57  94 S8        29.91S
JUNEAU         CLOUDY    64  56  75 S18G24    29.90F
$$

LSZ147-162-281600-
LAKE SUPERIOR

STATION/POSITION TIME  TEMP    WIND        PRES    WAVE
                       AIR SEA DIR/SP/G            HT/PER
                 (UTC) (F)     (DEG/KT/KT) (MB)    (FT/S)
W MID LAKE BUOY  1450   46 39   90/  8/ 10 1007.0F   1
DEVILS ISLAND    1500   53      70/ 11/ 12 1005.7F
SAXON HARBOR     1440   65     180/  7/ 14 1005.4F
$$

LMZ867-665-643>646-281600-
LAKE MICHIGAN

STATION/POSITION TIME  TEMP    WIND        PRES    WAVE
                       AIR SEA DIR/SP/G            HT/PER
                 (UTC) (F)     (DEG/KT/KT) (MB)    (FT/S)
CHAMBERS ISLAND  1440   67     130/  5/ 14 1010.8F
S GREEN BAY BUOY 1500   66     190/ 19/ 23 1010.6
N MID LAKE BUOY  1450   58 56  180/ 14/ 16 1013.4F   3/ 5
NORTHPORT PIER   1440   64     150/ 11/ 16 1011.9F
KEWAUNEE LAKESHO 1454   54     180/ 12/ 13 1011.4F
SHEBOYGAN LAKESH 1500   58     190/ 19/ 21 1012.6F
PORT WASHINGTON  1440   58     210/  9/ 13 1013.9F
ATWATER BUOY     1409   60 55  160/ 14/ 16 1013.5F
MILWAUKEE LAKESH 1500   67     200/ 20/ 24   N/A
S MID LAKE BUOY  1450   63 61  170/ 17/ 21 1015.3F   4/ 5
KENOSHA   LAKESH 1500   68     190/ 14/ 17 1014.2
$$

TC  - TEMPERATURE IN CELSIUS
VSB - VISIBILITY IN STATUTE MILES
WCI - WIND CHILL INDEX
HX  - HEAT INDEX





USA.gov is the U.S. government's official web portal to all federal, state and local government web resources and services.